Regional Weather Roundup
Issued by NWS

Home | Current Version | Previous Version | Graphics & Text | Print | Product List | Glossary On
Versions: 1 2 3 4 5 6 7 8 9 10 11 12 13 14 15 16 17 18 19 20 21 22 23 24 25 26 27 28 29 30 31 32 33 34 35 36 37 38 39 40 41 42 43 44 45 46 47 48 49 50
249
ASUS45 KABQ 220910
RWRNM
NEW MEXICO REGIONAL WEATHER ROUNDUP
NATIONAL WEATHER SERVICE ALBUQUERQUE NM
300 AM MDT TUE MAY 22 2018

NOTE: "FAIR" MEANS FEW OR NO CLOUDS BELOW 12,000 FEET AGL WITH NO
       SIGNIFICANT WEATHER OR OBSTRUCTIONS TO VISION.

      THIS PRODUCT IS RELEASED AS TWO VERSIONS.  ONE VERSION NEAR
      THE TOP OF THE HOUR CONTAINING PRELIMINARY DATA FROM ALBUQUERQUE
      AND OTHER STATIONS.  A FINAL VERSION WITH ADDITIONAL DATA IS
      ISSUED ABOUT 10 MINUTES AFTER THE HOUR.

NMZ501-503-504-510>518-221000-
NORTHWEST PLATEAU/NORTHCENTRAL MOUNTAINS

CITY           SKY/WX    TMP DP  RH WIND       PRES   REMARKS
FARMINGTON     FAIR      53  38  56 E10       29.97S
LOS ALAMOS     FAIR      49  40  73 SW7       30.14F
SANTA FE       FAIR      48  47  96 N8        30.10F
TAOS           FAIR      41  40  96 NE5       30.17S
ANGEL FIRE     FOG       37  37  98 CALM      30.21F VSB 1/2

$$
NMZ402-403-502-505>509-221000-
WESTCENTRAL MOUNTAINS/SOUTHWEST MOUNTAINS

CITY           SKY/WX    TMP DP  RH WIND       PRES   REMARKS
GALLUP         FAIR      46  34  62 E3        30.02S
GRANTS         FAIR      52  44  74 S12       30.07S
SILVER CITY    MOCLDY    47  10  22 NW8       30.00R

$$
NMZ407-409-411-412-221000-
SOUTHERN DESERTS

CITY           SKY/WX    TMP DP  RH WIND       PRES   REMARKS
DEMING         FAIR      55  11  17 NW3       29.95R
LAS CRUCES     FAIR      65  47  50 S10       29.99R
HOLLOMAN AFB   FAIR      64  51  61 CALM      29.99R
ALAMOGORDO     FAIR      61  50  67 N5        29.98R
T OR C         FAIR      63  49  60 N9        29.96R

$$
NMZ519>523-221000-
CENTRAL VALLEYS/CENTRAL HIGHLANDS

CITY           SKY/WX    TMP DP  RH WIND       PRES   REMARKS
ALBUQUERQUE    CLOUDY    61  47  59 E14       30.01F
DOUBLE EAGLE   FAIR      51  47  86 E7        30.05S
MORIARTY ARPT  MOCLDY    54  52  94 SE10      30.13S
CLINES CORNERS CLOUDY    49  48  97 E14G24    30.15F
BELEN          FAIR      52  48  84 W8        30.01F
SOCORRO        FAIR      58  49  73 CALM      30.00S

$$
NMZ524>526-539-540-221000-
SOUTHCENTRAL MOUNTAINS

CITY           SKY/WX    TMP DP  RH WIND       PRES   REMARKS
RUIDOSO        NOT AVBL

$$
NMZ527>531-221000-
NORTHEAST HIGHLANDS/NORTHEAST PLAINS

CITY           SKY/WX    TMP DP  RH WIND       PRES   REMARKS
LAS VEGAS      FAIR      46  45  96 SW5       30.15F
RATON          CLOUDY    51  45  79 W3        30.10F
CLAYTON        FAIR      55  52  89 S10       30.01F

$$
NMZ532>537-221000-
EASTCENTRAL PLAINS

CITY           SKY/WX    TMP DP  RH WIND       PRES   REMARKS
SANTA ROSA     FAIR      56  51  81 SE17      30.04R
TUCUMCARI      RAIN      59  55  87 S20       30.07F
CANNON AFB     TSTM      57  57 100 NW16      30.15F
CLOVIS AIRPORT TSTM      57  54  88 W13       30.17R

$$
NMZ028-029-538-221000-
SOUTHEAST PLAINS

CITY           SKY/WX    TMP DP  RH WIND       PRES   REMARKS
ROSWELL        FAIR      60  57  89 E16       30.02F
ARTESIA        FAIR      61  61 100 VRB5G16   30.01F
CARLSBAD       MOCLDY    64  59  83 NE14      29.99S
HOBBS          MOCLDY    68  57  68 E6        30.05F


$$




USA.gov is the U.S. government's official web portal to all federal, state and local government web resources and services.